Time,TemperatureF,DewpointF,PressureIn,WindDirection,WindDirectionDegrees,WindSpeedMPH,WindSpeedGustMPH,Humidity,HourlyPrecipIn,Conditions,Clouds,dailyrainin,SoftwareType,DateUTC
2013-01-26 00:01:00,44.2,43.7,23.86,South,191,0.0,0.0,98,0.04,,-RA,0.00,VWS V14.01,2013-01-26 07:01:00,
2013-01-26 00:06:00,44.4,43.9,23.86,South,191,0.0,0.0,98,0.04,,-RA,0.00,VWS V14.01,2013-01-26 07:06:00,
2013-01-26 00:11:00,44.6,44.1,23.86,South,191,0.0,0.0,98,0.04,,-RA,0.00,VWS V14.01,2013-01-26 07:11:00,
2013-01-26 00:16:00,44.8,44.2,23.86,South,191,0.0,0.0,98,0.04,,-RA,0.00,VWS V14.01,2013-01-26 07:16:00,
2013-01-26 00:21:00,45.0,44.4,23.86,South,191,0.0,0.0,98,0.08,,-RA,0.04,VWS V14.01,2013-01-26 07:21:00,
2013-01-26 00:26:00,44.6,44.1,23.86,South,191,0.0,0.0,98,0.08,,-RA,0.04,VWS V14.01,2013-01-26 07:26:00,
2013-01-26 00:31:00,44.6,44.1,23.86,South,191,0.0,0.0,98,0.08,,-RA,0.04,VWS V14.01,2013-01-26 07:31:00,
2013-01-26 00:36:00,44.4,43.9,23.86,South,191,0.0,0.0,98,0.12,,-RA,0.08,VWS V14.01,2013-01-26 07:36:00,
2013-01-26 00:41:00,44.4,43.9,23.86,South,191,0.0,0.0,98,0.08,,-RA,0.08,VWS V14.01,2013-01-26 07:41:00,
2013-01-26 00:46:00,44.4,43.9,23.86,South,191,0.0,0.0,98,0.08,,RA,0.08,VWS V14.01,2013-01-26 07:46:00,
2013-01-26 00:51:00,44.4,43.9,23.86,South,191,0.0,0.0,98,0.08,,RA,0.08,VWS V14.01,2013-01-26 07:51:00,
2013-01-26 00:56:00,44.2,43.7,23.86,South,191,0.0,0.0,98,0.12,,RA,0.12,VWS V14.01,2013-01-26 07:56:00,
2013-01-26 01:01:00,44.2,43.7,23.86,South,191,0.0,0.0,98,0.12,,RA,0.12,VWS V14.01,2013-01-26 08:01:00,
2013-01-26 01:06:00,44.2,43.7,23.86,South,191,0.0,0.0,98,0.12,,RA,0.12,VWS V14.01,2013-01-26 08:06:00,
2013-01-26 01:11:00,44.2,43.7,23.86,South,191,0.0,0.0,98,0.12,,RA,0.12,VWS V14.01,2013-01-26 08:11:00,
2013-01-26 01:16:00,44.1,43.5,23.83,South,191,0.0,0.0,98,0.12,,RA,0.12,VWS V14.01,2013-01-26 08:16:00,
2013-01-26 01:21:00,44.2,43.7,23.83,South,191,0.0,0.0,98,0.08,,RA,0.12,VWS V14.01,2013-01-26 08:21:00,
2013-01-26 01:26:00,44.1,43.5,23.83,South,191,0.0,0.0,98,0.08,,RA,0.12,VWS V14.01,2013-01-26 08:26:00,
2013-01-26 01:31:00,44.1,43.5,23.83,South,191,0.0,0.0,98,0.08,,RA,0.12,VWS V14.01,2013-01-26 08:31:00,
2013-01-26 01:36:00,44.2,43.7,23.83,South,191,0.0,0.0,98,0.08,,RA,0.12,VWS V14.01,2013-01-26 08:36:00,
2013-01-26 01:41:00,44.2,43.7,23.83,South,191,0.0,0.0,98,0.04,,RA,0.12,VWS V14.01,2013-01-26 08:41:00,
2013-01-26 01:46:00,44.2,43.7,23.83,South,191,0.0,0.0,98,0.04,,RA,0.12,VWS V14.01,2013-01-26 08:46:00,
2013-01-26 01:51:00,44.2,43.7,23.83,South,191,0.0,0.0,98,0.04,,RA,0.12,VWS V14.01,2013-01-26 08:51:00,
2013-01-26 01:56:00,44.2,43.7,23.83,South,191,0.0,0.0,98,0.04,,RA,0.12,VWS V14.01,2013-01-26 08:56:00,
2013-01-26 02:01:00,44.6,44.1,23.80,South,191,0.0,0.0,98,0.00,,-RA,0.12,VWS V14.01,2013-01-26 09:01:00,
2013-01-26 02:06:00,44.2,43.7,23.80,South,191,0.0,0.0,98,0.00,,-RA,0.12,VWS V14.01,2013-01-26 09:06:00,
2013-01-26 02:11:00,44.2,43.7,23.80,South,191,0.0,0.0,98,0.00,,-RA,0.12,VWS V14.01,2013-01-26 09:11:00,
2013-01-26 02:16:00,44.4,43.9,23.80,South,191,0.0,0.0,98,0.00,,-RA,0.12,VWS V14.01,2013-01-26 09:16:00,
2013-01-26 02:21:00,44.4,43.9,23.80,South,191,0.0,0.0,98,0.00,,-RA,0.12,VWS V14.01,2013-01-26 09:21:00,
2013-01-26 02:26:00,44.6,44.1,23.80,South,191,0.0,0.0,98,0.00,,-RA,0.12,VWS V14.01,2013-01-26 09:26:00,
2013-01-26 02:31:00,44.6,44.1,23.80,South,191,0.0,0.0,98,0.00,,-RA,0.12,VWS V14.01,2013-01-26 09:31:00,
2013-01-26 02:36:00,44.4,43.9,23.80,South,191,0.0,0.0,98,0.00,,,0.12,VWS V14.01,2013-01-26 09:36:00,
2013-01-26 02:41:00,44.4,43.9,23.80,South,191,0.0,0.0,98,0.00,,,0.12,VWS V14.01,2013-01-26 09:41:00,
2013-01-26 02:46:00,44.4,43.9,23.80,South,191,0.0,0.0,98,0.00,,-RA,0.12,VWS V14.01,2013-01-26 09:46:00,
2013-01-26 02:51:00,44.4,43.9,23.80,South,191,0.0,0.0,98,0.00,,-RA,0.12,VWS V14.01,2013-01-26 09:51:00,
2013-01-26 02:56:00,44.6,44.1,23.80,SW,231,0.0,0.0,98,0.00,,-RA,0.12,VWS V14.01,2013-01-26 09:56:00,
2013-01-26 03:01:00,44.6,44.1,23.77,SW,231,0.0,0.0,98,0.00,,-RA,0.12,VWS V14.01,2013-01-26 10:01:00,
2013-01-26 03:06:00,44.8,44.2,23.77,WSW,247,2.7,2.7,98,0.00,,-RA,0.12,VWS V14.01,2013-01-26 10:06:00,
2013-01-26 03:11:00,45.3,44.8,23.77,SW,232,3.6,4.0,98,0.04,,-RA,0.16,VWS V14.01,2013-01-26 10:11:00,
2013-01-26 03:16:00,45.7,45.2,23.77,NW,325,0.0,4.0,98,0.04,,-RA,0.16,VWS V14.01,2013-01-26 10:16:00,
2013-01-26 03:21:00,45.9,45.3,23.77,West,264,0.0,0.0,98,0.04,,-RA,0.16,VWS V14.01,2013-01-26 10:21:00,
2013-01-26 03:26:00,45.9,45.3,23.77,NNE,13,0.0,4.9,98,0.04,,-RA,0.16,VWS V14.01,2013-01-26 10:26:00,
2013-01-26 03:31:00,46.0,45.5,23.77,WNW,284,0.0,4.9,98,0.04,,-RA,0.16,VWS V14.01,2013-01-26 10:31:00,
2013-01-26 03:36:00,46.0,45.5,23.77,NNW,328,0.0,0.0,98,0.04,,-RA,0.16,VWS V14.01,2013-01-26 10:36:00,
2013-01-26 03:41:00,46.0,45.5,23.77,WNW,295,0.0,3.1,98,0.04,,-RA,0.16,VWS V14.01,2013-01-26 10:41:00,
2013-01-26 03:46:00,46.0,45.5,23.77,West,264,4.0,4.0,98,0.04,,-RA,0.16,VWS V14.01,2013-01-26 10:46:00,
2013-01-26 03:51:00,46.0,45.5,23.77,SW,218,0.0,4.0,98,0.04,,-RA,0.16,VWS V14.01,2013-01-26 10:51:00,
2013-01-26 03:56:00,46.0,45.5,23.77,South,189,0.0,4.0,98,0.04,,-RA,0.16,VWS V14.01,2013-01-26 10:56:00,
2013-01-26 04:01:00,46.0,45.5,23.77,NNW,332,0.0,0.0,98,0.04,,-RA,0.16,VWS V14.01,2013-01-26 11:01:00,
2013-01-26 04:06:00,46.0,45.5,23.77,South,185,0.0,0.0,98,0.04,,-RA,0.16,VWS V14.01,2013-01-26 11:06:00,
2013-01-26 04:11:00,46.2,45.7,23.77,ESE,112,3.6,4.9,98,0.04,,-RA,0.16,VWS V14.01,2013-01-26 11:11:00,
2013-01-26 04:16:00,46.2,45.7,23.77,WNW,289,5.8,6.3,98,0.04,,-RA,0.16,VWS V14.01,2013-01-26 11:16:00,
2013-01-26 04:21:00,46.4,45.9,23.77,West,274,2.7,4.9,98,0.00,,-RA,0.16,VWS V14.01,2013-01-26 11:21:00,
2013-01-26 04:26:00,46.4,45.9,23.77,NNW,334,0.0,5.8,98,0.00,,-RA,0.16,VWS V14.01,2013-01-26 11:26:00,
2013-01-26 04:31:00,46.4,45.9,23.74,WSW,254,0.0,5.8,98,0.00,,-RA,0.16,VWS V14.01,2013-01-26 11:31:00,
2013-01-26 04:36:00,46.4,45.9,23.74,West,261,3.1,3.6,98,0.00,,-RA,0.16,VWS V14.01,2013-01-26 11:36:00,
2013-01-26 04:41:00,46.4,45.9,23.74,North,5,0.0,0.0,98,0.00,,-RA,0.16,VWS V14.01,2013-01-26 11:41:00,
2013-01-26 04:46:00,46.4,45.9,23.74,West,275,2.7,5.4,98,0.00,,-RA,0.16,VWS V14.01,2013-01-26 11:46:00,
2013-01-26 04:51:00,46.4,45.9,23.74,West,266,3.6,5.4,98,0.00,,-RA,0.16,VWS V14.01,2013-01-26 11:51:00,
2013-01-26 04:56:00,46.4,45.9,23.74,SW,230,4.0,5.4,98,0.00,,-RA,0.16,VWS V14.01,2013-01-26 11:56:00,
2013-01-26 05:01:00,46.4,45.9,23.74,WNW,299,2.2,4.9,98,0.08,,RA,0.24,VWS V14.01,2013-01-26 12:01:00,
2013-01-26 05:06:00,46.4,45.9,23.74,SW,225,5.4,5.4,98,0.08,,RA,0.24,VWS V14.01,2013-01-26 12:06:00,
2013-01-26 05:11:00,46.4,45.9,23.74,South,186,0.0,5.8,98,0.08,,RA,0.24,VWS V14.01,2013-01-26 12:11:00,
2013-01-26 05:16:00,46.4,45.9,23.74,SSW,209,0.0,5.8,98,0.08,,RA,0.24,VWS V14.01,2013-01-26 12:16:00,
2013-01-26 05:21:00,46.4,45.9,23.74,SSW,208,0.0,0.0,98,0.08,,RA,0.24,VWS V14.01,2013-01-26 12:21:00,
2013-01-26 05:26:00,46.6,46.0,23.74,West,281,4.0,6.3,98,0.08,,RA,0.24,VWS V14.01,2013-01-26 12:26:00,
2013-01-26 05:31:00,46.6,46.0,23.74,SSW,212,0.0,6.3,98,0.08,,RA,0.24,VWS V14.01,2013-01-26 12:31:00,
2013-01-26 05:36:00,46.6,46.0,23.74,WSW,254,0.0,0.0,98,0.08,,RA,0.24,VWS V14.01,2013-01-26 12:36:00,
2013-01-26 05:41:00,46.6,46.0,23.74,WNW,297,0.0,3.6,98,0.08,,RA,0.24,VWS V14.01,2013-01-26 12:41:00,
2013-01-26 05:46:00,46.6,46.0,23.74,SSW,208,0.0,4.5,98,0.08,,RA,0.24,VWS V14.01,2013-01-26 12:46:00,
2013-01-26 05:51:00,46.6,46.0,23.74,WSW,251,3.6,5.8,98,0.08,,RA,0.24,VWS V14.01,2013-01-26 12:51:00,
2013-01-26 05:56:00,46.8,46.2,23.74,SW,233,3.6,5.8,98,0.12,,RA,0.28,VWS V14.01,2013-01-26 12:56:00,
2013-01-26 06:01:00,46.8,46.2,23.74,WSW,251,0.0,4.0,98,0.04,,RA,0.28,VWS V14.01,2013-01-26 13:01:00,
2013-01-26 06:06:00,46.6,46.0,23.74,West,276,3.1,3.1,98,0.04,,RA,0.28,VWS V14.01,2013-01-26 13:06:00,
2013-01-26 06:11:00,46.6,46.0,23.74,WSW,254,6.3,6.3,98,0.04,,RA,0.28,VWS V14.01,2013-01-26 13:11:00,
2013-01-26 06:16:00,46.6,46.0,23.74,WSW,257,4.0,6.3,98,0.04,,RA,0.28,VWS V14.01,2013-01-26 13:16:00,
2013-01-26 06:21:00,46.6,46.0,23.74,WNW,300,3.1,5.4,98,0.04,,RA,0.28,VWS V14.01,2013-01-26 13:21:00,
2013-01-26 06:26:00,46.6,46.0,23.74,WSW,244,3.1,6.3,98,0.04,,RA,0.28,VWS V14.01,2013-01-26 13:26:00,
2013-01-26 06:31:00,46.6,46.0,23.71,West,270,4.0,6.3,98,0.04,,RA,0.28,VWS V14.01,2013-01-26 13:31:00,
2013-01-26 06:36:00,46.6,46.0,23.71,SSE,159,0.0,3.1,98,0.04,,RA,0.28,VWS V14.01,2013-01-26 13:36:00,
2013-01-26 06:41:00,46.6,46.0,23.71,West,267,0.0,0.0,98,0.04,,RA,0.28,VWS V14.01,2013-01-26 13:41:00,
2013-01-26 06:46:00,46.6,46.0,23.71,WNW,291,0.0,5.8,98,0.04,,-RA,0.28,VWS V14.01,2013-01-26 13:46:00,
2013-01-26 06:51:00,46.6,46.0,23.71,SSW,210,0.0,5.8,98,0.04,,-RA,0.28,VWS V14.01,2013-01-26 13:51:00,
2013-01-26 06:56:00,46.6,46.0,23.71,SW,223,0.0,5.8,98,0.04,,-RA,0.28,VWS V14.01,2013-01-26 13:56:00,
2013-01-26 07:01:00,46.6,46.0,23.71,WSW,258,2.2,5.4,98,0.04,,-RA,0.31,VWS V14.01,2013-01-26 14:01:00,
2013-01-26 07:06:00,46.6,46.0,23.71,West,262,0.0,0.0,98,0.04,,-RA,0.31,VWS V14.01,2013-01-26 14:06:00,
2013-01-26 07:11:00,46.6,46.0,23.71,West,281,0.0,5.4,98,0.08,,-RA,0.35,VWS V14.01,2013-01-26 14:11:00,
2013-01-26 07:16:00,46.4,45.9,23.74,NNW,348,3.1,5.4,98,0.08,,-RA,0.35,VWS V14.01,2013-01-26 14:16:00,
2013-01-26 07:23:00,46.2,45.7,23.74,SW,236,0.0,0.0,98,0.00,,,0.31,VWS V14.01,2013-01-26 14:23:00,
2013-01-26 07:28:00,46.0,45.5,23.74,NNE,15,0.0,5.8,98,0.12,,,0.39,VWS V14.01,2013-01-26 14:28:00,
2013-01-26 07:33:00,45.9,45.3,23.74,West,275,4.9,6.3,98,0.12,,-RA,0.39,VWS V14.01,2013-01-26 14:33:00,
2013-01-26 07:38:00,45.9,45.3,23.74,ENE,63,0.0,5.8,98,0.16,,-RA,0.43,VWS V14.01,2013-01-26 14:38:00,
2013-01-26 07:43:00,45.5,45.0,23.74,West,281,0.0,4.0,98,0.16,,-RA,0.43,VWS V14.01,2013-01-26 14:43:00,
2013-01-26 07:48:00,45.5,45.0,23.74,NNW,340,3.1,6.3,98,0.16,,-RA,0.43,VWS V14.01,2013-01-26 14:48:00,
2013-01-26 07:53:00,45.5,45.0,23.74,South,191,0.0,6.3,98,0.20,,-RA,0.47,VWS V14.01,2013-01-26 14:53:00,
2013-01-26 07:58:00,45.5,45.0,23.74,WNW,298,0.0,6.3,98,0.20,,-RA,0.47,VWS V14.01,2013-01-26 14:58:00,
2013-01-26 08:03:00,45.3,44.8,23.74,SW,236,0.0,0.0,98,0.16,,-RA,0.47,VWS V14.01,2013-01-26 15:03:00,
2013-01-26 08:08:00,45.3,44.8,23.74,WSW,251,0.0,0.0,98,0.16,,-RA,0.47,VWS V14.01,2013-01-26 15:08:00,
2013-01-26 08:13:00,45.3,44.8,23.74,West,277,0.0,2.2,98,0.16,,-RA,0.47,VWS V14.01,2013-01-26 15:13:00,
2013-01-26 08:18:00,45.3,44.8,23.74,West,267,0.0,2.7,98,0.16,,-RA,0.47,VWS V14.01,2013-01-26 15:18:00,
2013-01-26 08:23:00,45.3,44.8,23.74,West,267,0.0,0.0,98,0.08,,-RA,0.51,VWS V14.01,2013-01-26 15:23:00,
2013-01-26 08:28:00,45.3,44.8,23.74,West,267,0.0,0.0,98,0.08,,-RA,0.51,VWS V14.01,2013-01-26 15:28:00,
2013-01-26 08:33:00,45.3,44.8,23.74,West,267,0.0,0.0,98,0.08,,-RA,0.51,VWS V14.01,2013-01-26 15:33:00,
2013-01-26 08:38:00,45.5,45.0,23.74,West,261,0.0,0.0,98,0.08,,-RA,0.51,VWS V14.01,2013-01-26 15:38:00,
2013-01-26 08:43:00,45.5,45.0,23.74,WSW,253,0.0,0.0,98,0.08,,-RA,0.51,VWS V14.01,2013-01-26 15:43:00,
2013-01-26 08:48:00,45.5,45.0,23.74,WSW,253,0.0,0.0,98,0.08,,-RA,0.51,VWS V14.01,2013-01-26 15:48:00,
2013-01-26 08:53:00,45.5,45.0,23.74,WSW,253,0.0,0.0,98,0.08,,-RA,0.51,VWS V14.01,2013-01-26 15:53:00,
2013-01-26 08:58:00,45.5,45.0,23.74,WSW,253,0.0,0.0,98,0.08,,-RA,0.51,VWS V14.01,2013-01-26 15:58:00,
2013-01-26 09:03:00,45.5,45.0,23.74,SW,234,0.0,0.0,98,0.04,,-RA,0.51,VWS V14.01,2013-01-26 16:03:00,
2013-01-26 09:08:00,45.5,45.0,23.74,SW,234,0.0,0.0,98,0.04,,-RA,0.51,VWS V14.01,2013-01-26 16:08:00,
2013-01-26 09:13:00,45.7,45.2,23.74,SW,235,0.0,0.0,98,0.04,,-RA,0.51,VWS V14.01,2013-01-26 16:13:00,
2013-01-26 09:18:00,45.7,45.2,23.74,West,262,0.0,0.0,98,0.04,,-RA,0.51,VWS V14.01,2013-01-26 16:18:00,
2013-01-26 09:23:00,45.7,45.2,23.74,West,261,0.0,0.0,98,0.08,,-RA,0.55,VWS V14.01,2013-01-26 16:23:00,
2013-01-26 09:28:00,45.9,45.3,23.74,West,261,0.0,2.7,98,0.08,,-RA,0.55,VWS V14.01,2013-01-26 16:28:00,
2013-01-26 09:33:00,45.7,45.2,23.74,WSW,252,0.0,2.7,98,0.08,,-RA,0.55,VWS V14.01,2013-01-26 16:33:00,
2013-01-26 09:38:00,45.7,45.2,23.74,WSW,252,0.0,3.6,98,0.08,,-RA,0.55,VWS V14.01,2013-01-26 16:38:00,
2013-01-26 09:43:00,45.7,45.2,23.74,WSW,257,0.0,0.0,98,0.04,,-RA,0.55,VWS V14.01,2013-01-26 16:43:00,
2013-01-26 09:48:00,45.7,45.2,23.74,SW,231,0.0,0.0,98,0.04,,-RA,0.55,VWS V14.01,2013-01-26 16:48:00,
2013-01-26 09:53:00,45.7,45.2,23.74,SW,231,0.0,0.0,98,0.08,,-RA,0.59,VWS V14.01,2013-01-26 16:53:00,
2013-01-26 09:58:00,45.7,45.2,23.74,SW,232,0.0,0.0,98,0.08,,-RA,0.59,VWS V14.01,2013-01-26 16:58:00,
2013-01-26 10:03:00,45.7,45.2,23.74,SW,232,0.0,0.0,98,0.08,,-RA,0.59,VWS V14.01,2013-01-26 17:03:00,
2013-01-26 10:08:00,45.7,45.2,23.74,SW,232,0.0,0.0,98,0.08,,-RA,0.59,VWS V14.01,2013-01-26 17:08:00,
2013-01-26 10:13:00,45.7,45.2,23.74,SW,232,0.0,0.0,98,0.08,,-RA,0.59,VWS V14.01,2013-01-26 17:13:00,
2013-01-26 10:18:00,45.9,45.3,23.74,SW,232,0.0,0.0,98,0.08,,-RA,0.59,VWS V14.01,2013-01-26 17:18:00,
2013-01-26 10:23:00,45.9,45.3,23.74,SW,232,0.0,0.0,98,0.08,,-RA,0.59,VWS V14.01,2013-01-26 17:23:00,
2013-01-26 10:28:00,45.9,45.3,23.74,SW,233,0.0,0.0,98,0.08,,-RA,0.59,VWS V14.01,2013-01-26 17:28:00,
2013-01-26 10:33:00,45.9,45.3,23.74,West,277,0.0,0.0,98,0.12,,-RA,0.63,VWS V14.01,2013-01-26 17:33:00,
2013-01-26 10:38:00,45.7,45.2,23.74,WNW,303,0.0,4.9,98,0.12,,-RA,0.63,VWS V14.01,2013-01-26 17:38:00,
2013-01-26 10:43:00,45.5,45.0,23.74,WSW,240,2.7,4.0,98,0.08,,-RA,0.63,VWS V14.01,2013-01-26 17:43:00,
2013-01-26 10:48:00,45.3,44.8,23.74,West,274,0.0,4.0,98,0.08,,RA,0.63,VWS V14.01,2013-01-26 17:48:00,
2013-01-26 10:53:00,45.1,44.6,23.74,West,277,0.0,7.2,98,0.08,,RA,0.63,VWS V14.01,2013-01-26 17:53:00,
2013-01-26 10:58:00,45.1,44.6,23.74,WSW,243,0.0,7.2,98,0.08,,RA,0.63,VWS V14.01,2013-01-26 17:58:00,
2013-01-26 11:03:00,45.1,44.6,23.74,SSE,157,0.0,2.7,98,0.04,,RA,0.63,VWS V14.01,2013-01-26 18:03:00,
2013-01-26 11:08:00,45.3,44.8,23.74,NW,304,0.0,0.0,98,0.04,,RA,0.63,VWS V14.01,2013-01-26 18:08:00,
2013-01-26 11:13:00,45.3,44.8,23.74,NNW,336,0.0,3.1,98,0.04,,RA,0.63,VWS V14.01,2013-01-26 18:13:00,
2013-01-26 11:18:00,45.1,44.6,23.74,WSW,246,0.0,7.2,98,0.04,,RA,0.63,VWS V14.01,2013-01-26 18:18:00,
2013-01-26 11:23:00,45.0,44.4,23.74,WSW,249,2.7,3.6,98,0.04,,RA,0.63,VWS V14.01,2013-01-26 18:23:00,
2013-01-26 11:28:00,45.0,44.4,23.74,West,262,0.0,3.6,98,0.04,,RA,0.63,VWS V14.01,2013-01-26 18:28:00,
2013-01-26 11:33:00,45.0,44.4,23.74,WNW,283,0.0,3.6,98,0.08,,RA,0.67,VWS V14.01,2013-01-26 18:33:00,
2013-01-26 11:38:00,45.0,44.4,23.74,North,357,0.0,0.0,98,0.08,,RA,0.67,VWS V14.01,2013-01-26 18:38:00,
2013-01-26 11:43:00,45.0,44.4,23.74,West,276,0.0,0.0,98,0.04,,RA,0.67,VWS V14.01,2013-01-26 18:43:00,
2013-01-26 11:48:00,45.1,44.6,23.74,West,273,0.0,0.0,98,0.04,,RA,0.67,VWS V14.01,2013-01-26 18:48:00,
2013-01-26 11:53:00,45.1,44.6,23.74,SSW,212,3.1,3.6,98,0.04,,RA,0.67,VWS V14.01,2013-01-26 18:53:00,
2013-01-26 11:58:00,45.1,44.6,23.71,NW,318,2.7,3.6,98,0.04,,RA,0.67,VWS V14.01,2013-01-26 18:58:00,
2013-01-26 12:03:00,45.1,44.6,23.71,NNW,336,2.7,3.6,98,0.04,,RA,0.67,VWS V14.01,2013-01-26 19:03:00,
2013-01-26 12:08:00,45.1,44.6,23.71,WNW,296,4.0,4.0,98,0.04,,RA,0.67,VWS V14.01,2013-01-26 19:08:00,
2013-01-26 12:13:00,45.0,44.4,23.71,WSW,240,3.1,4.9,98,0.08,,RA,0.71,VWS V14.01,2013-01-26 19:13:00,
2013-01-26 12:18:00,45.0,44.4,23.71,NW,323,2.2,5.8,98,0.08,,RA,0.71,VWS V14.01,2013-01-26 19:18:00,
2013-01-26 12:23:00,44.8,44.2,23.71,NNW,331,5.4,5.8,98,0.08,,RA,0.71,VWS V14.01,2013-01-26 19:23:00,
2013-01-26 12:28:00,44.6,44.1,23.71,WNW,283,0.0,5.8,98,0.08,,RA,0.71,VWS V14.01,2013-01-26 19:28:00,
2013-01-26 12:33:00,44.4,43.9,23.71,West,259,3.6,8.1,98,0.08,,RA,0.71,VWS V14.01,2013-01-26 19:33:00,
2013-01-26 12:38:00,44.2,43.7,23.71,WSW,253,0.0,4.0,98,0.08,,RA,0.71,VWS V14.01,2013-01-26 19:38:00,
2013-01-26 12:43:00,44.2,43.7,23.71,WSW,249,0.0,6.3,98,0.04,,RA,0.71,VWS V14.01,2013-01-26 19:43:00,
2013-01-26 12:48:00,44.1,43.5,23.71,WSW,252,6.3,6.3,98,0.08,,-RA,0.75,VWS V14.01,2013-01-26 19:48:00,
2013-01-26 12:53:00,44.2,43.7,23.71,West,260,0.0,6.3,98,0.08,,-RA,0.75,VWS V14.01,2013-01-26 19:53:00,
2013-01-26 12:58:00,44.2,43.7,23.71,WSW,244,0.0,6.3,98,0.08,,-RA,0.75,VWS V14.01,2013-01-26 19:58:00,
2013-01-26 13:03:00,44.2,43.7,23.71,WSW,247,0.0,3.1,98,0.08,,-RA,0.75,VWS V14.01,2013-01-26 20:03:00,
2013-01-26 13:08:00,44.4,43.9,23.71,WSW,247,2.7,6.3,98,0.08,,-RA,0.75,VWS V14.01,2013-01-26 20:08:00,
2013-01-26 13:13:00,44.2,43.7,23.71,WSW,247,2.7,6.3,98,0.08,,-RA,0.75,VWS V14.01,2013-01-26 20:13:00,
2013-01-26 13:18:00,44.2,43.7,23.71,WNW,286,2.7,6.3,98,0.08,,-RA,0.75,VWS V14.01,2013-01-26 20:18:00,
2013-01-26 13:23:00,44.1,43.5,23.71,SSW,203,2.2,4.9,98,0.04,,-RA,0.75,VWS V14.01,2013-01-26 20:23:00,
2013-01-26 13:28:00,43.9,43.3,23.68,WNW,286,0.0,4.9,98,0.04,,-RA,0.75,VWS V14.01,2013-01-26 20:28:00,
2013-01-26 13:33:00,43.9,43.3,23.68,West,266,2.7,5.4,98,0.04,,-RA,0.75,VWS V14.01,2013-01-26 20:33:00,
2013-01-26 13:38:00,43.7,43.2,23.68,WNW,288,0.0,5.8,98,0.04,,-RA,0.75,VWS V14.01,2013-01-26 20:38:00,
2013-01-26 13:43:00,43.5,43.0,23.68,NW,319,3.1,5.4,98,0.04,,-RA,0.75,VWS V14.01,2013-01-26 20:43:00,
2013-01-26 13:48:00,43.5,43.0,23.68,WSW,253,2.7,5.4,98,0.04,,-RA,0.75,VWS V14.01,2013-01-26 20:48:00,
2013-01-26 13:53:00,43.7,43.2,23.68,SSW,206,4.0,5.4,98,0.04,,-RA,0.75,VWS V14.01,2013-01-26 20:53:00,
2013-01-26 13:58:00,43.7,43.2,23.68,West,261,0.0,5.4,98,0.04,,-RA,0.75,VWS V14.01,2013-01-26 20:58:00,
2013-01-26 14:03:00,43.7,43.2,23.68,WNW,297,0.0,6.3,98,0.00,,OVC060,0.75,VWS V14.01,2013-01-26 21:03:00,
2013-01-26 14:08:00,43.9,43.3,23.68,WSW,245,0.0,3.6,98,0.00,,OVC060,0.75,VWS V14.01,2013-01-26 21:08:00,
2013-01-26 14:13:00,44.1,43.5,23.68,West,267,0.0,5.4,98,0.00,,OVC060,0.75,VWS V14.01,2013-01-26 21:13:00,
2013-01-26 14:18:00,44.4,43.9,23.68,West,263,3.6,5.4,98,0.00,,OVC060,0.75,VWS V14.01,2013-01-26 21:18:00,
2013-01-26 14:23:00,44.8,44.2,23.68,WSW,239,3.6,4.0,98,0.00,,OVC060,0.75,VWS V14.01,2013-01-26 21:23:00,
2013-01-26 14:28:00,44.6,44.1,23.68,NW,309,2.7,6.3,98,0.00,,OVC060,0.75,VWS V14.01,2013-01-26 21:28:00,
2013-01-26 14:33:00,44.6,44.1,23.68,NNW,335,0.0,6.3,98,0.00,,OVC060,0.75,VWS V14.01,2013-01-26 21:33:00,
2013-01-26 14:38:00,44.8,44.2,23.68,WNW,288,3.1,4.0,98,0.04,,,0.79,VWS V14.01,2013-01-26 21:38:00,
2013-01-26 14:43:00,44.8,44.2,23.71,WSW,252,3.6,7.6,98,0.04,,,0.79,VWS V14.01,2013-01-26 21:43:00,
2013-01-26 14:48:00,44.4,43.9,23.71,NW,315,5.4,7.6,98,0.04,,,0.79,VWS V14.01,2013-01-26 21:48:00,
2013-01-26 14:53:00,44.2,43.7,23.71,WSW,254,3.6,7.6,98,0.04,,,0.79,VWS V14.01,2013-01-26 21:53:00,
2013-01-26 14:58:00,44.2,43.7,23.71,WNW,299,6.3,7.6,98,0.04,,,0.79,VWS V14.01,2013-01-26 21:58:00,
2013-01-26 15:03:00,44.2,43.7,23.71,West,281,2.2,4.9,98,0.04,,,0.79,VWS V14.01,2013-01-26 22:03:00,
2013-01-26 15:08:00,44.2,43.7,23.71,West,266,0.0,5.4,98,0.04,,,0.79,VWS V14.01,2013-01-26 22:08:00,
2013-01-26 15:13:00,44.1,43.5,23.71,WNW,292,3.6,5.4,98,0.04,,,0.79,VWS V14.01,2013-01-26 22:13:00,
2013-01-26 15:18:00,44.1,43.5,23.71,West,262,0.0,9.6,98,0.04,,,0.79,VWS V14.01,2013-01-26 22:18:00,
2013-01-26 15:23:00,43.9,43.3,23.71,NNW,346,0.0,6.3,98,0.04,,,0.79,VWS V14.01,2013-01-26 22:23:00,
2013-01-26 15:28:00,43.9,43.3,23.71,West,270,3.1,6.3,98,0.04,,,0.79,VWS V14.01,2013-01-26 22:28:00,
2013-01-26 15:33:00,43.7,43.2,23.71,NW,310,6.3,8.1,98,0.08,,,0.83,VWS V14.01,2013-01-26 22:33:00,
2013-01-26 15:38:00,43.7,43.2,23.71,WNW,282,2.2,2.7,98,0.08,,,0.83,VWS V14.01,2013-01-26 22:38:00,
2013-01-26 15:43:00,43.7,43.2,23.71,WSW,250,0.0,5.4,98,0.04,,,0.83,VWS V14.01,2013-01-26 22:43:00,
2013-01-26 15:48:00,43.7,43.2,23.71,SW,233,0.0,5.4,98,0.04,,OVC024,0.83,VWS V14.01,2013-01-26 22:48:00,
2013-01-26 15:53:00,43.5,43.0,23.71,NW,320,4.0,7.6,98,0.04,,OVC024,0.83,VWS V14.01,2013-01-26 22:53:00,
2013-01-26 15:58:00,43.3,42.8,23.71,South,187,3.6,7.6,98,0.04,,OVC024,0.83,VWS V14.01,2013-01-26 22:58:00,
2013-01-26 16:03:00,43.5,43.0,23.71,WSW,246,0.0,2.7,98,0.04,,OVC024,0.83,VWS V14.01,2013-01-26 23:03:00,
2013-01-26 16:08:00,43.5,43.0,23.71,WNW,301,4.0,5.8,98,0.04,,OVC024,0.83,VWS V14.01,2013-01-26 23:08:00,
2013-01-26 16:13:00,43.3,42.8,23.71,NW,305,4.0,5.8,98,0.04,,OVC024,0.83,VWS V14.01,2013-01-26 23:13:00,
2013-01-26 16:18:00,43.3,42.8,23.71,WSW,250,0.0,5.8,98,0.04,,OVC024,0.83,VWS V14.01,2013-01-26 23:18:00,
2013-01-26 16:23:00,43.3,42.8,23.71,SW,218,3.6,4.0,98,0.04,,OVC024,0.83,VWS V14.01,2013-01-26 23:23:00,
2013-01-26 16:28:00,43.0,42.5,23.71,NW,307,3.6,5.4,98,0.04,,OVC024,0.83,VWS V14.01,2013-01-26 23:28:00,
2013-01-26 16:33:00,43.0,42.5,23.71,West,265,0.0,5.4,98,0.04,,OVC024,0.83,VWS V14.01,2013-01-26 23:33:00,
2013-01-26 16:38:00,43.3,42.8,23.71,NNW,340,0.0,2.2,98,0.04,,OVC024,0.83,VWS V14.01,2013-01-26 23:38:00,
2013-01-26 16:43:00,43.2,42.6,23.71,NE,54,2.7,4.0,98,0.00,,OVC024,0.83,VWS V14.01,2013-01-26 23:43:00,
2013-01-26 16:48:00,43.2,42.6,23.71,SW,232,5.8,5.8,98,0.00,,,0.83,VWS V14.01,2013-01-26 23:48:00,
2013-01-26 16:53:00,43.0,42.5,23.71,SW,233,2.7,8.1,98,0.00,,,0.83,VWS V14.01,2013-01-26 23:53:00,
2013-01-26 16:58:00,42.8,42.3,23.71,WSW,238,2.2,8.1,98,0.00,,,0.83,VWS V14.01,2013-01-26 23:58:00,
2013-01-26 17:03:00,42.8,42.3,23.71,West,279,0.0,4.9,98,0.00,,,0.83,VWS V14.01,2013-01-27 00:03:00,
2013-01-26 17:08:00,42.8,42.3,23.71,South,179,0.0,3.1,98,0.04,,,0.87,VWS V14.01,2013-01-27 00:08:00,
2013-01-26 17:13:00,42.8,42.3,23.71,SW,222,0.0,3.1,98,0.04,,,0.87,VWS V14.01,2013-01-27 00:13:00,
2013-01-26 17:18:00,42.6,42.1,23.71,SW,235,4.0,7.6,98,0.04,,OVC033,0.87,VWS V14.01,2013-01-27 00:18:00,
2013-01-26 17:23:00,42.6,42.1,23.71,WSW,241,5.4,5.4,98,0.04,,OVC033,0.87,VWS V14.01,2013-01-27 00:23:00,
2013-01-26 17:28:00,42.6,42.1,23.71,West,260,2.2,5.4,98,0.04,,OVC033,0.87,VWS V14.01,2013-01-27 00:28:00,
2013-01-26 17:33:00,42.8,42.3,23.71,SW,219,4.9,5.4,98,0.04,,OVC033,0.87,VWS V14.01,2013-01-27 00:33:00,
2013-01-26 17:38:00,42.6,42.1,23.71,SSW,208,0.0,5.4,98,0.04,,OVC033,0.87,VWS V14.01,2013-01-27 00:38:00,
2013-01-26 17:43:00,42.4,41.9,23.71,West,280,2.2,5.4,98,0.04,,OVC033,0.87,VWS V14.01,2013-01-27 00:43:00,
2013-01-26 17:48:00,42.6,42.1,23.71,NW,312,0.0,6.3,98,0.04,,OVC033,0.87,VWS V14.01,2013-01-27 00:48:00,
2013-01-26 17:53:00,42.6,42.1,23.71,West,259,2.2,6.3,98,0.08,,OVC033,0.91,VWS V14.01,2013-01-27 00:53:00,
2013-01-26 17:58:00,42.4,41.9,23.71,WSW,253,4.9,6.3,98,0.08,,OVC033,0.91,VWS V14.01,2013-01-27 00:58:00,
2013-01-26 18:03:00,42.4,41.9,23.71,NW,306,0.0,4.0,98,0.08,,OVC033,0.91,VWS V14.01,2013-01-27 01:03:00,
2013-01-26 18:08:00,42.6,42.1,23.71,West,270,0.0,4.9,98,0.08,,OVC033,0.91,VWS V14.01,2013-01-27 01:08:00,
2013-01-26 18:13:00,42.6,42.1,23.71,WNW,287,0.0,4.9,98,0.08,,OVC033,0.91,VWS V14.01,2013-01-27 01:13:00,
2013-01-26 18:18:00,42.4,41.9,23.71,NNW,341,0.0,4.9,98,0.08,,OVC033,0.91,VWS V14.01,2013-01-27 01:18:00,
2013-01-26 18:23:00,42.4,41.9,23.71,NNW,348,0.0,2.7,98,0.04,,OVC033,0.91,VWS V14.01,2013-01-27 01:23:00,
2013-01-26 18:28:00,42.6,42.1,23.71,NNW,348,0.0,2.7,98,0.04,,OVC033,0.91,VWS V14.01,2013-01-27 01:28:00,
2013-01-26 18:33:00,42.6,42.1,23.74,WNW,286,0.0,3.1,98,0.04,,OVC033,0.91,VWS V14.01,2013-01-27 01:33:00,
2013-01-26 18:38:00,42.6,42.1,23.74,SW,219,0.0,2.7,98,0.04,,OVC033,0.91,VWS V14.01,2013-01-27 01:38:00,
2013-01-26 18:43:00,42.6,42.1,23.74,South,189,2.2,5.8,98,0.08,,OVC033,0.94,VWS V14.01,2013-01-27 01:43:00,
2013-01-26 18:48:00,42.4,41.9,23.74,West,271,0.0,5.8,98,0.08,,-RA,0.94,VWS V14.01,2013-01-27 01:48:00,
2013-01-26 18:53:00,42.4,41.9,23.74,NW,315,0.0,5.8,98,0.08,,-RA,0.94,VWS V14.01,2013-01-27 01:53:00,
2013-01-26 18:58:00,42.6,42.1,23.74,WNW,302,0.0,5.8,98,0.08,,-RA,0.94,VWS V14.01,2013-01-27 01:58:00,
2013-01-26 19:03:00,42.6,42.1,23.74,NW,324,0.0,0.0,98,0.04,,-RA,0.94,VWS V14.01,2013-01-27 02:03:00,
2013-01-26 19:08:00,42.6,42.1,23.74,West,271,0.0,5.8,98,0.04,,-RA,0.94,VWS V14.01,2013-01-27 02:08:00,
2013-01-26 19:13:00,42.6,42.1,23.74,North,0,2.7,5.8,98,0.04,,-RA,0.94,VWS V14.01,2013-01-27 02:13:00,
2013-01-26 19:18:00,42.6,42.1,23.74,West,260,0.0,5.8,98,0.04,,-RA,0.94,VWS V14.01,2013-01-27 02:18:00,
2013-01-26 19:23:00,42.6,42.1,23.74,West,271,2.7,4.9,98,0.04,,-RA,0.94,VWS V14.01,2013-01-27 02:23:00,
2013-01-26 19:28:00,42.6,42.1,23.74,NW,326,0.0,4.9,98,0.04,,-RA,0.94,VWS V14.01,2013-01-27 02:28:00,
2013-01-26 19:33:00,42.6,42.1,23.74,SSW,213,3.6,5.4,98,0.04,,-RA,0.94,VWS V14.01,2013-01-27 02:33:00,
2013-01-26 19:38:00,42.6,42.1,23.74,NW,326,3.6,6.7,98,0.04,,-RA,0.94,VWS V14.01,2013-01-27 02:38:00,
2013-01-26 19:43:00,42.4,41.9,23.74,WNW,293,0.0,4.0,98,0.04,,-RA,0.94,VWS V14.01,2013-01-27 02:43:00,
2013-01-26 19:48:00,42.4,41.9,23.74,SSW,197,3.6,4.0,98,0.04,,-RA,0.94,VWS V14.01,2013-01-27 02:48:00,
2013-01-26 19:53:00,42.6,42.1,23.74,North,0,0.0,4.0,98,0.04,,-RA,0.94,VWS V14.01,2013-01-27 02:53:00,
2013-01-26 19:58:00,42.4,41.9,23.74,NW,323,2.2,4.0,98,0.04,,-RA,0.94,VWS V14.01,2013-01-27 02:58:00,
2013-01-26 20:03:00,42.4,41.9,23.74,NNW,335,0.0,2.7,98,0.08,,-RA,1.02,VWS V14.01,2013-01-27 03:03:00,
2013-01-26 20:08:00,42.4,41.9,23.74,WNW,284,0.0,5.8,98,0.08,,-RA,1.02,VWS V14.01,2013-01-27 03:08:00,
2013-01-26 20:13:00,42.4,41.9,23.74,NW,307,0.0,5.8,98,0.08,,-RA,1.02,VWS V14.01,2013-01-27 03:13:00,
2013-01-26 20:18:00,42.4,41.9,23.74,SSE,168,2.7,5.8,98,0.08,,-RA,1.02,VWS V14.01,2013-01-27 03:18:00,
2013-01-26 20:23:00,42.3,41.7,23.74,West,276,4.0,4.0,98,0.08,,-RA,1.02,VWS V14.01,2013-01-27 03:23:00,
2013-01-26 20:28:00,42.3,41.7,23.74,West,279,0.0,4.0,98,0.08,,-RA,1.02,VWS V14.01,2013-01-27 03:28:00,
2013-01-26 20:33:00,42.3,41.7,23.74,West,264,0.0,4.0,98,0.08,,-RA,1.02,VWS V14.01,2013-01-27 03:33:00,
2013-01-26 20:38:00,42.1,41.6,23.74,WSW,253,0.0,4.0,98,0.08,,-RA,1.02,VWS V14.01,2013-01-27 03:38:00,
2013-01-26 20:43:00,42.1,41.6,23.74,West,274,0.0,0.0,98,0.08,,-RA,1.02,VWS V14.01,2013-01-27 03:43:00,
2013-01-26 20:48:00,41.9,41.4,23.77,WNW,282,0.0,2.7,98,0.08,,OVC080,1.02,VWS V14.01,2013-01-27 03:48:00,
2013-01-26 20:53:00,41.9,41.4,23.77,WSW,256,0.0,3.1,98,0.08,,OVC080,1.02,VWS V14.01,2013-01-27 03:53:00,
2013-01-26 20:58:00,41.9,41.4,23.74,WNW,290,0.0,3.1,98,0.08,,OVC080,1.02,VWS V14.01,2013-01-27 03:58:00,
2013-01-26 21:03:00,41.9,41.4,23.74,NNW,338,2.7,3.1,98,0.00,,OVC080,1.02,VWS V14.01,2013-01-27 04:03:00,
2013-01-26 21:08:00,41.9,41.4,23.74,WNW,297,0.0,0.0,98,0.00,,OVC080,1.02,VWS V14.01,2013-01-27 04:08:00,
2013-01-26 21:13:00,42.1,41.6,23.74,West,263,2.7,5.8,98,0.00,,OVC080,1.02,VWS V14.01,2013-01-27 04:13:00,
2013-01-26 21:18:00,42.1,41.6,23.74,WNW,289,4.0,5.8,98,0.00,,OVC080,1.02,VWS V14.01,2013-01-27 04:18:00,
2013-01-26 21:23:00,42.1,41.6,23.74,West,259,0.0,3.6,98,0.00,,OVC080,1.02,VWS V14.01,2013-01-27 04:23:00,
2013-01-26 21:28:00,42.1,41.6,23.74,NW,314,0.0,3.6,98,0.00,,OVC080,1.02,VWS V14.01,2013-01-27 04:28:00,
2013-01-26 21:33:00,42.1,41.6,23.77,WNW,294,0.0,4.9,98,0.00,,OVC080,1.02,VWS V14.01,2013-01-27 04:33:00,
2013-01-26 21:38:00,42.1,41.6,23.77,NNW,327,0.0,2.7,98,0.00,,OVC080,1.02,VWS V14.01,2013-01-27 04:38:00,
2013-01-26 21:43:00,42.3,41.7,23.77,NNW,331,0.0,2.7,98,0.04,,OVC080,1.06,VWS V14.01,2013-01-27 04:43:00,
2013-01-26 21:48:00,42.3,41.7,23.77,West,273,2.7,7.2,98,0.04,,OVC075,1.06,VWS V14.01,2013-01-27 04:48:00,
2013-01-26 21:53:00,42.3,41.7,23.77,NW,318,2.2,7.2,98,0.04,,OVC075,1.06,VWS V14.01,2013-01-27 04:53:00,
2013-01-26 21:58:00,42.3,41.7,23.77,NW,313,0.0,7.2,98,0.04,,OVC075,1.06,VWS V14.01,2013-01-27 04:58:00,
2013-01-26 22:00:00,42.3,41.7,23.77,NNW,335,3.6,3.6,98,0.04,,OVC075,1.06,VWS V14.01,2013-01-27 05:00:00,
2013-01-26 22:01:00,42.3,41.7,23.77,WNW,300,0.0,3.6,98,0.04,,OVC075,1.06,VWS V14.01,2013-01-27 05:01:00,
2013-01-26 22:07:00,42.3,41.7,23.77,NNW,335,3.1,3.1,98,0.04,,OVC075,1.06,VWS V14.01,2013-01-27 05:07:00,
2013-01-26 22:12:00,42.3,41.7,23.77,NW,315,0.0,5.4,98,0.04,,OVC075,1.06,VWS V14.01,2013-01-27 05:12:00,
2013-01-26 22:17:00,42.3,41.7,23.77,NW,312,4.9,5.4,98,0.04,,OVC075,1.06,VWS V14.01,2013-01-27 05:17:00,
2013-01-26 22:22:00,42.3,41.7,23.77,NW,310,0.0,3.1,98,0.04,,OVC075,1.06,VWS V14.01,2013-01-27 05:22:00,
2013-01-26 22:27:00,42.3,41.7,23.77,WSW,251,3.6,4.0,98,0.04,,OVC075,1.06,VWS V14.01,2013-01-27 05:27:00,
2013-01-26 22:32:00,42.1,41.6,23.77,WNW,303,3.6,4.0,98,0.04,,OVC075,1.06,VWS V14.01,2013-01-27 05:32:00,
2013-01-26 22:37:00,42.1,41.6,23.77,WNW,288,3.6,7.6,98,0.04,,OVC075,1.06,VWS V14.01,2013-01-27 05:37:00,
2013-01-26 22:42:00,42.1,41.6,23.77,NNW,328,3.1,3.6,98,0.04,,OVC075,1.06,VWS V14.01,2013-01-27 05:42:00,
2013-01-26 22:47:00,42.1,41.6,23.77,NNW,335,0.0,6.3,98,0.04,,-RA,1.06,VWS V14.01,2013-01-27 05:47:00,
2013-01-26 22:52:00,42.1,41.6,23.77,NW,321,0.0,6.3,98,0.04,,-RA,1.06,VWS V14.01,2013-01-27 05:52:00,
2013-01-26 22:56:00,42.1,41.6,23.77,NW,324,2.7,6.3,98,0.04,,-RA,1.06,VWS V14.01,2013-01-27 05:56:00,
2013-01-26 23:01:00,42.1,41.6,23.77,NW,307,0.0,0.0,98,0.00,,-RA,1.06,VWS V14.01,2013-01-27 06:01:00,
2013-01-26 23:06:00,42.1,41.6,23.77,NW,320,0.0,3.6,98,0.00,,-RA,1.06,VWS V14.01,2013-01-27 06:06:00,
2013-01-26 23:11:00,42.1,41.6,23.77,North,357,0.0,5.4,98,0.00,,-RA,1.06,VWS V14.01,2013-01-27 06:11:00,
2013-01-26 23:16:00,42.1,41.6,23.77,NW,322,0.0,5.4,98,0.00,,-RA,1.06,VWS V14.01,2013-01-27 06:16:00,
2013-01-26 23:22:00,42.1,41.6,23.77,NNW,338,0.0,2.7,98,0.00,,-RA,1.06,VWS V14.01,2013-01-27 06:22:00,
2013-01-26 23:27:00,42.1,41.6,23.77,NW,316,0.0,2.7,98,0.00,,-RA,1.06,VWS V14.01,2013-01-27 06:27:00,
2013-01-26 23:32:00,42.1,41.6,23.77,WNW,296,0.0,3.1,98,0.00,,-RA,1.06,VWS V14.01,2013-01-27 06:32:00,
2013-01-26 23:37:00,42.1,41.6,23.77,NNW,327,0.0,0.0,98,0.00,,-RA,1.06,VWS V14.01,2013-01-27 06:37:00,
2013-01-26 23:42:00,42.1,41.6,23.77,South,176,0.0,3.6,98,0.04,,-RA,1.10,VWS V14.01,2013-01-27 06:42:00,
2013-01-26 23:47:00,42.1,41.6,23.77,WNW,291,0.0,3.6,98,0.04,,OVC031,1.10,VWS V14.01,2013-01-27 06:47:00,
2013-01-26 23:52:00,42.1,41.6,23.77,WSW,240,2.2,4.9,98,0.04,,OVC031,1.10,VWS V14.01,2013-01-27 06:52:00,
2013-01-26 23:57:00,42.1,41.6,23.77,WNW,294,0.0,4.9,98,0.04,,OVC031,1.10,VWS V14.01,2013-01-27 06:57:00,